Theta_e
313 313 314 314 314 315 315 315 315 315 315 315 315 315 315 315 315 314 314 314 314 314 314 314 314 314 314 314 314 315 315 315 315 315 316 316 316 316 315 314 313 312
311 311 312 312 312 312 312 313 313 313 313 313 313 313 313 313 313 313 313 313 313 314 314 314 313 313 313 313 313 313 314 314 314 314 314 315 315 315 315 314 314 313
311 311 311 311 311 311 311 311 311 311 311 312 312 312 312 312 313 313 313 313 313 313 313 313 313 313 313 312 312 312 312 313 313 313 313 313 313 313 313 313 313 313
310 310 310 311 311 310 310 310 310 311 311 311 311 311 311 311 312 312 312 312 312 312 312 311 311 311 311 311 311 311 311 311 311 312 311 311 311 312 312 312 312 312
309 310 310 310 310 310 310 310 310 310 310 310 310 310 310 310 310 310 310 311 311 311 310 310 310 310 310 310 310 310 310 310 310 310 310 310 310 310 310 310 310 310
309 309 309 309 309 309 309 309 309 309 309 309 309 309 309 309 309 309 309 309 309 309 309 309 309 309 309 309 309 309 309 309 309 309 309 308 309 309 308 308 308 308
309 309 308 308 308 308 307 307 308 308 308 308 308 308 308 308 308 308 308 308 308 308 308 308 308 308 308 308 308 308 308 308 308 308 308 307 307 307 307 307 307 307
308 308 307 307 307 306 306 306 307 307 307 307 306 307 307 307 307 307 307 307 307 307 307 307 307 307 307 306 306 307 307 307 307 306 306 306 306 306 306 306 306 306
306 306 306 305 305 305 305 305 306 306 306 306 306 306 306 306 306 306 306 306 306 306 306 306 306 305 305 305 305 305 305 305 305 305 305 304 304 304 304 305 305 305
305 305 305 305 304 304 305 305 305 305 305 305 305 304 304 304 304 304 304 305 304 305 305 305 305 305 305 304 304 304 303 304 303 303 303 303 303 303 303 303 303 303
305 304 304 304 304 304 304 304 304 304 304 304 304 304 304 304 304 303 304 304 303 303 304 304 304 304 304 303 303 303 302 302 302 302 302 301 301 301 302 302 302 302
302 302 302 302 302 302 302 301 302 302 302 302 301 302 302 302 302 302 302 302 302 302 303 303 303 303 303 303 302 302 302 301 301 301 301 301 300 300 300 300 300 301
299 299 299 299 299 298 298 298 298 298 298 298 298 298 299 299 299 299 299 299 300 300 300 301 301 301 301 301 302 301 301 301 301 301 300 300 300 300 300 300 300 300
297 297 297 297 297 297 297 297 297 297 297 297 297 297 297 297 297 297 297 297 297 297 298 298 298 298 298 299 300 300 300 300 300 300 300 300 300 300 300 299 299 299
296 296 296 296 296 296 296 296 296 296 296 296 296 296 296 296 296 296 296 296 296 296 296 296 296 296 296 297 297 298 299 299 299 299 299 299 299 299 299 298 298 298
295 295 295 295 295 295 295 295 295 295 295 295 295 295 295 295 295 295 295 295 295 295 295 295 296 295 296 296 296 296 297 297 298 298 298 298 298 298 298 298 298 298
294 294 294 294 294 294 294 294 294 294 294 294 294 294 294 294 294 294 294 294 295 294 295 295 295 295 295 295 295 296 296 296 296 297 297 297 297 297 298 298 298 298
293 294 294 294 293 293 293 293 293 293 293 294 294 293 293 293 294 294 293 293 294 293 294 294 294 294 294 294 294 295 295 295 295 295 296 296 296 297 297 297 297 297
293 293 293 293 293 293 293 293 293 293 293 293 293 293 293 293 293 293 293 293 293 293 293 293 293 294 293 293 294 294 294 294 294 294 295 295 295 296 296 296 296 297
293 293 293 293 293 293 293 293 293 293 293 293 293 293 293 293 293 293 293 293 293 293 292 293 293 293 293 293 293 293 293 293 293 293 294 294 294 294 295 295 295 296
292 292 293 293 293 293 293 293 293 293 293 292 292 292 292 292 292 292 292 292 292 292 292 292 292 292 292 292 292 292 292 292 292 292 293 293 293 293 294 294 294 295
291 291 291 291 292 292 292 292 292 292 291 291 291 291 291 291 291 291 291 291 291 291 291 291 292 292 291 292 292 291 291 291 291 292 292 292 292 293 293 293 293 294
289 290 290 290 291 291 291 291 290 290 290 290 290 290 290 290 290 290 290 290 290 290 290 290 291 291 291 291 291 291 291 291 291 291 291 292 292 292 292 293 293 293
289 289 289 289 289 289 289 289 289 289 289 289 288 288 289 289 289 289 289 289 289 289 289 289 290 290 290 290 291 291 290 290 290 290 291 291 291 292 292 292 292 293
287 288 288 288 288 288 288 288 288 288 288 288 288 288 288 288 288 288 289 289 289 289 289 289 289 289 290 290 290 290 290 290 290 290 290 291 291 291 292 292 292 292
287 287 287 287 287 287 287 288 288 288 287 287 288 288 287 288 288 288 288 289 289 289 289 289 289 289 289 290 290 290 290 289 289 289 290 290 291 291 291 291 291 292
Wind_Speed
7 9 10 11 11 12 13 13 12 12 13 14 14 14 15 16 16 15 15 16 15 16 16 16 17 17 18 18 18 17 19 22 24 26 27 29 32 33 36 37 38 38
5 6 7 8 10 11 12 13 11 10 11 13 14 14 14 14 14 15 15 15 16 16 16 17 17 17 17 16 16 17 18 20 22 25 27 30 31 32 34 35 35 36
2 4 5 6 7 8 9 9 8 9 10 11 12 13 13 13 13 14 14 14 15 16 17 17 17 18 19 18 18 19 20 20 21 23 26 30 32 33 34 34 35 35
2 3 4 5 5 6 7 7 7 9 9 10 11 11 12 12 12 13 13 14 15 16 16 15 14 16 17 18 19 20 21 22 21 21 24 28 31 33 35 35 35 35
1 2 3 4 4 5 5 5 5 7 8 9 9 10 10 11 11 12 12 13 14 15 15 14 14 14 15 17 18 19 19 19 19 19 20 23 25 27 31 32 33 34
0 1 1 1 1 2 2 2 2 4 5 7 7 8 9 9 10 11 11 12 13 14 15 14 14 14 14 17 19 20 19 19 19 19 20 23 24 24 26 27 29 31
3 3 2 2 2 2 2 2 2 3 4 5 6 7 7 8 9 9 10 11 12 13 14 15 15 15 16 18 20 22 22 22 24 23 24 26 27 27 29 29 29 31
6 6 5 5 5 5 4 4 5 5 5 5 6 6 7 7 8 9 10 11 12 14 14 15 16 17 18 18 20 23 24 25 26 26 26 29 29 30 32 32 32 34
9 8 8 8 8 7 6 7 8 7 7 7 7 7 7 7 8 9 10 11 12 13 14 15 16 17 18 19 20 23 25 26 27 26 26 28 30 32 33 32 32 34
11 11 11 10 10 10 10 10 11 10 10 10 10 10 9 9 9 9 10 11 12 13 14 15 16 17 18 20 21 23 24 26 26 26 27 28 31 32 33 32 32 34
13 13 13 13 13 13 13 13 13 13 13 13 13 13 13 12 12 12 12 13 13 14 15 16 16 18 19 21 22 22 23 25 26 27 28 29 31 32 32 32 32 34
15 15 14 15 14 14 15 15 15 15 15 16 16 16 16 16 16 16 16 16 16 16 17 17 18 19 20 21 22 23 23 24 26 27 28 29 30 31 31 32 33 34
15 15 15 15 15 15 15 15 15 16 16 16 16 16 16 17 17 17 18 18 18 18 18 19 19 20 21 21 22 23 24 25 26 27 28 29 30 31 32 32 34 35
15 14 14 14 14 14 15 15 15 16 16 16 17 17 16 17 17 18 18 18 19 18 19 19 20 21 21 21 22 23 24 25 26 27 29 30 30 32 32 32 33 35
14 13 13 14 14 15 16 16 16 17 17 17 17 17 17 17 17 18 19 19 19 19 19 20 20 21 22 22 23 24 25 26 27 28 29 30 31 32 32 31 32 33
13 13 14 14 15 16 16 17 17 18 18 18 18 18 18 18 19 19 20 20 20 20 21 21 22 22 22 22 23 24 26 28 29 30 30 29 30 31 32 33 32 33
14 14 15 16 16 17 18 18 19 19 20 20 20 20 20 20 21 21 21 21 21 22 22 23 23 24 23 23 23 23 25 28 30 32 32 31 31 31 32 34 34 35
15 16 17 18 19 19 20 20 21 21 22 22 23 23 24 24 24 24 24 25 24 25 25 26 27 27 25 24 23 23 23 26 29 32 34 35 35 34 36 37 37 38
17 18 19 20 20 21 21 22 23 23 24 25 25 25 26 27 27 28 28 28 28 29 29 30 31 30 29 28 27 26 24 24 27 30 33 36 37 37 39 40 40 40
18 19 20 21 21 22 23 23 24 25 26 26 26 27 28 29 29 30 30 30 31 31 32 34 34 33 33 31 30 29 28 26 27 30 32 35 37 38 39 41 41 42
19 20 21 22 23 23 24 25 26 27 28 28 28 29 30 31 31 32 32 33 33 33 34 37 37 35 34 33 31 30 30 28 28 30 33 35 37 38 39 41 42 42
20 21 22 24 25 26 27 28 29 30 30 30 31 32 33 34 34 34 34 35 35 34 35 38 40 37 34 34 33 30 30 30 29 31 33 35 38 40 40 41 42 40
21 23 24 25 26 28 29 30 31 31 31 32 33 35 36 37 38 38 38 37 37 36 36 39 43 42 37 36 36 33 30 31 31 31 34 37 39 41 43 43 42 39
21 22 23 25 27 28 29 30 31 31 32 33 34 36 38 38 39 41 42 41 40 39 38 39 44 47 43 38 38 36 30 30 32 33 34 37 39 42 44 44 41 39
21 21 23 25 27 27 28 29 30 31 32 33 34 35 38 39 39 40 43 44 43 42 42 42 44 48 48 43 40 38 33 30 31 31 33 37 39 41 43 43 42 40
21 23 25 26 27 27 28 28 30 31 32 34 35 36 37 38 40 40 42 45 46 44 44 44 43 46 49 47 43 40 36 33 31 31 33 36 38 38 39 40 41 40
Wind_Direction
241 248 254 257 261 264 266 267 268 270 271 272 272 273 277 281 281 278 276 274 273 271 269 268 265 263 263 260 255 252 251 251 253 255 256 257 256 253 250 250 250 250
237 247 252 258 263 270 275 273 271 272 275 277 278 279 280 282 282 280 278 276 275 273 270 268 265 263 263 261 258 256 254 252 253 256 257 257 256 255 253 254 254 253
269 275 275 277 278 279 280 277 276 278 280 283 285 287 288 286 284 282 280 277 274 273 272 269 267 267 266 264 263 261 260 259 258 257 257 258 258 257 258 260 259 257
310 296 285 282 281 282 282 283 290 291 289 292 293 292 291 286 284 281 277 276 274 273 273 269 268 269 269 268 266 265 264 263 262 260 258 259 259 259 259 261 260 259
277 280 279 280 281 285 291 296 301 302 299 297 294 291 288 286 286 284 282 281 278 277 276 272 271 270 270 271 270 268 267 266 264 261 258 259 259 259 260 260 259 259
80 321 302 300 291 294 318 327 318 311 304 301 300 298 296 293 292 291 289 287 284 283 281 278 277 275 273 275 274 271 269 268 268 265 262 263 264 263 262 260 260 260
70 58 58 53 55 56 43 44 37 357 327 319 316 312 307 302 301 299 295 292 289 287 285 284 283 281 280 278 275 274 272 271 271 270 268 268 269 268 266 264 262 262
71 68 66 61 61 59 53 55 50 28 3 349 341 335 327 319 314 309 304 300 297 293 293 293 290 288 286 281 278 278 278 276 275 273 272 272 271 269 268 267 266 264
73 69 67 63 62 59 55 54 50 40 27 14 6 0 350 340 331 323 317 312 307 306 304 301 299 297 292 286 283 283 283 282 280 277 275 274 272 271 271 270 268 266
72 68 65 62 59 54 51 50 48 44 36 27 22 17 10 1 351 341 334 327 322 321 317 313 311 306 301 297 292 290 289 287 286 282 278 277 275 274 273 272 269 268
71 67 63 60 55 50 47 46 45 42 36 31 27 22 18 13 6 359 353 346 340 335 330 326 322 315 310 308 303 300 296 293 291 288 284 282 279 277 276 274 271 270
68 63 60 56 50 46 43 40 40 37 33 29 25 21 18 14 10 6 1 356 351 346 341 336 331 325 319 316 312 308 303 298 296 294 291 288 284 281 280 276 274 273
63 58 55 50 45 42 38 35 34 31 28 25 19 15 13 9 6 3 359 357 353 348 346 341 337 333 327 323 320 314 308 304 300 298 295 292 289 287 284 281 277 275
58 53 48 44 39 35 31 29 27 23 20 16 12 9 6 2 359 355 351 350 348 344 343 339 336 334 330 325 322 317 312 306 302 300 297 294 292 290 286 283 280 277
53 47 41 36 31 26 23 20 17 15 11 8 5 2 359 355 352 349 346 343 340 338 336 333 330 329 328 324 320 316 312 307 302 299 297 294 292 290 288 284 282 280
45 38 32 28 23 19 16 13 10 8 4 1 360 356 353 350 346 344 341 338 335 332 330 328 326 325 324 321 317 314 311 307 303 299 296 293 290 289 289 288 285 284
35 30 25 21 18 14 11 8 5 3 360 357 355 352 349 347 344 342 340 337 333 330 327 325 324 325 324 319 316 313 308 304 301 298 296 292 289 287 288 289 289 287
27 23 21 17 13 11 7 5 2 360 358 355 352 351 348 345 343 341 338 336 332 328 326 324 324 326 325 321 317 314 309 304 299 297 295 293 290 288 287 288 289 288
21 18 15 12 9 6 3 1 359 356 355 352 349 348 345 343 341 338 336 335 331 328 324 322 323 326 325 322 319 316 313 307 299 295 294 292 290 288 287 287 286 285
15 12 10 6 4 1 359 358 356 354 352 349 346 345 343 340 339 336 334 333 329 327 323 321 322 324 324 321 319 317 315 308 300 295 292 291 290 288 286 286 285 283
10 8 6 3 0 359 357 355 354 351 349 347 344 342 340 338 336 333 331 329 328 325 322 319 320 322 322 320 317 315 313 307 299 294 292 291 291 290 287 286 286 284
7 4 3 1 359 357 354 353 351 348 346 344 341 339 337 335 333 331 328 326 326 323 319 318 318 319 318 317 314 312 310 305 298 293 292 291 291 292 291 288 287 283
4 2 0 358 356 354 351 349 347 344 343 342 338 336 334 333 331 329 327 326 324 322 318 316 317 318 316 315 315 313 309 305 300 295 292 291 291 293 293 290 288 285
1 359 358 355 353 350 347 345 342 341 340 339 337 334 331 330 329 327 325 324 322 321 319 316 315 317 317 315 314 313 308 303 301 296 292 290 291 293 293 291 289 287
357 356 354 351 349 346 343 341 339 338 337 335 334 332 330 328 327 325 323 321 320 320 319 316 314 315 315 314 313 312 307 302 298 293 288 288 290 291 292 292 290 290
353 352 350 347 345 342 340 339 337 336 335 333 331 330 328 325 323 322 320 318 318 318 317 314 312 311 313 313 312 310 307 302 296 289 285 287 289 290 289 290 290 290